Location: Observatoire
(46.1952°N, 5.3391°E)
Time: 20:28:45
(UTC+02:00)

ITAMSAT 1 - Pass Details

Date: 22 April 2024
Orbit: 781 x 796 km, 98.8° (Epoch: 28 May)

Event Time Altitude Azimuth Distance (km) Brightness Sun altitude
Exits shadow 22:37:52 10° 194° (SSW) 2,341 9.8 -18.8°
Maximum altitude 22:42:40 39° 262° (W) 1,180 8.8 -19.4°
Drops below altitude 10° 22:47:34 10° 331° (NNW) 2,375 11.2 -20.0°
Sets 22:50:04 0° 339° (NNW) 3,308 12.1 -20.3°
